Weather History for KJMS - August, 2014

Change the Weather History Date:

Sunday, August 17, 2014

  Actual Average Record
Temperature  
Mean Temperature 73 °F 68 °F  
Max Temperature 81 °F 82 °F 101 °F (1973)
Min Temperature 65 °F 55 °F 37 °F (1924)
Degree Days  
Heating Degree Days 0 1  
Month to date heating degree days 1 16  
Since 1 June heating degree days 88 135  
Since 1 July heating degree days 29 38  
Cooling Degree Days 8 5  
Month to date cooling degree days 74 94  
Year to date cooling degree days 301 366  
Since 1 June cooling degree days 247 346  
Growing Degree Days 24 (Base 50)    
Moisture  
Dew Point 66 °F    
Average Humidity 80    
Maximum Humidity 93    
Minimum Humidity 67    
Precipitation  
Precipitation 0.03 in 0.07 in 1.82 in (2005)
Month to date precipitation 1.30 1.08  
Year to date precipitation 16.92 13.17  
Sea Level Pressure  
Sea Level Pressure 29.90 in    
Wind  
Wind Speed 4 mph (North)    
Max Wind Speed 15 mph    
Max Gust Speed 18 mph    
Visibility 8 miles    
Events Rain , Thunderstorm    
T = Trace of Precipitation, MM = Missing Value Source: NWS Daily Summary

Daily Weather History Graph

Daily Weather History Graph

Search for Another Location

Airport or City:

Trip Planner

Search our weather history database for the weather conditions in past years. The results will help you decide how hot, cold, wet, or windy it might be!

Date:

Astronomy

Aug. 17, 2014 Rise Set
Actual Time 6:34 AM CDT 8:41 PM CDT
Civil Twilight 6:01 AM CDT 9:14 PM CDT
Nautical Twilight 5:20 AM CDT 9:55 PM CDT
Astronomical Twilight 4:34 AM CDT 10:40 PM CDT
Moon No Moon Rise 2:52 PM CDT (8/17)
Length of Visible Light 15h 13m
Length of Day
14h 07m
Waning Gibbous, 48% of the Moon is Illuminated
Aug 17
Waning Gibbous
Aug 25
New
Sep 2
First Quarter
Sep 8
Full
Sep 15
Last Quarter

Hourly Weather History & Observations

Time (CDT) Temp. Heat Index Dew Point Humidity Pressure Visibility Wind Dir Wind Speed Gust Speed Precip Events Conditions
12:02 AM 68.0 °F - 66.9 °F 96% 29.93 in 2.5 mi NNE 3.5 mph - 0.02 in Rain Rain
12:11 AM 68.0 °F - 66.9 °F 96% 29.92 in 4.0 mi NNE 5.8 mph - 0.03 in Rain Light Rain
12:48 AM 68.0 °F - 66.9 °F 96% 29.91 in 7.0 mi North 6.9 mph - 0.03 in Rain Light Rain
12:56 AM 68.0 °F - 66.9 °F 96% 29.89 in 7.0 mi NNE 4.6 mph - 0.03 in   Overcast
1:56 AM 68.0 °F - 66.0 °F 93% 29.91 in 9.0 mi NE 4.6 mph - N/A   Overcast
2:38 AM 68.0 °F - 66.0 °F 93% 29.92 in 8.0 mi NE 3.5 mph - N/A   Overcast
2:56 AM 68.0 °F - 66.0 °F 93% 29.91 in 7.0 mi NNE 3.5 mph - N/A   Overcast
3:27 AM 68.0 °F - 66.0 °F 93% 29.91 in 7.0 mi NNE 3.5 mph - N/A   Mostly Cloudy
3:56 AM 66.9 °F - 64.9 °F 93% 29.90 in 5.0 mi North 3.5 mph - N/A   Mostly Cloudy
4:32 AM 66.9 °F - 64.9 °F 93% 29.92 in 5.0 mi North 3.5 mph - N/A   Overcast
4:47 AM 66.9 °F - 64.9 °F 93% 29.92 in 5.0 mi Calm Calm - N/A   Overcast
4:56 AM 66.9 °F - 64.9 °F 93% 29.91 in 6.0 mi NNE 3.5 mph - N/A   Overcast
5:56 AM 66.0 °F - 64.9 °F 96% 29.92 in 5.0 mi NNE 3.5 mph - N/A   Overcast
6:54 AM 66.2 °F - 64.4 °F 94% 29.96 in 4.0 mi NW 5.8 mph - N/A   Overcast
6:56 AM 66.0 °F - 64.9 °F 96% 29.95 in 4.0 mi NW 5.8 mph - N/A   Overcast
7:19 AM 66.0 °F - 64.9 °F 96% 29.96 in 2.0 mi NW 5.8 mph - N/A   Overcast
7:56 AM 66.0 °F - 64.0 °F 93% 29.95 in 3.0 mi NNW 5.8 mph - N/A   Overcast
8:17 AM 66.0 °F - 64.9 °F 96% 29.95 in 2.5 mi North 4.6 mph - N/A   Overcast
8:44 AM 66.9 °F - 64.9 °F 93% 29.94 in 3.0 mi Calm Calm - N/A   Overcast
8:56 AM 66.9 °F - 64.9 °F 93% 29.94 in 5.0 mi Calm Calm - N/A   Overcast
9:24 AM 69.1 °F - 66.0 °F 90% 29.95 in 8.0 mi Calm Calm - N/A   Overcast
9:45 AM 69.1 °F - 66.0 °F 90% 29.96 in 9.0 mi West 3.5 mph - N/A   Overcast
9:56 AM 69.1 °F - 66.0 °F 90% 29.94 in 9.0 mi WSW 4.6 mph - N/A   Overcast
10:56 AM 71.1 °F - 66.0 °F 84% 29.94 in 10.0 mi WNW 4.6 mph - N/A   Overcast
11:27 AM 71.1 °F - 66.0 °F 84% 29.95 in 10.0 mi NW 5.8 mph - N/A   Overcast
11:56 AM 73.0 °F - 66.9 °F 81% 29.93 in 10.0 mi Calm Calm - N/A   Overcast
12:46 PM 73.0 °F - 64.9 °F 76% 29.94 in 10.0 mi Calm Calm - N/A   Mostly Cloudy
12:56 PM 73.9 °F - 66.0 °F 76% 29.92 in 10.0 mi Calm Calm - N/A   Mostly Cloudy
1:56 PM 75.9 °F - 66.0 °F 71% 29.90 in 10.0 mi Calm Calm - N/A   Mostly Cloudy
2:05 PM 78.1 °F - 66.0 °F 66% 29.91 in 10.0 mi Calm Calm - N/A   Scattered Clouds
2:48 PM 79.0 °F - 66.0 °F 64% 29.91 in 10.0 mi Variable 3.5 mph - N/A   Mostly Cloudy
2:56 PM 79.0 °F - 66.9 °F 66% 29.88 in 10.0 mi Calm Calm - N/A   Mostly Cloudy
3:56 PM 80.1 °F 82.7 °F 68.0 °F 67% 29.86 in 10.0 mi SE 8.1 mph - N/A   Overcast
4:15 PM 81.0 °F 83.3 °F 66.9 °F 62% 29.88 in 10.0 mi South 6.9 mph - N/A   Mostly Cloudy
4:56 PM 81.0 °F 84.1 °F 69.1 °F 67% 29.84 in 10.0 mi SSE 6.9 mph - N/A   Mostly Cloudy
5:56 PM 80.1 °F 82.9 °F 69.1 °F 69% 29.81 in 10.0 mi South 4.6 mph - N/A   Scattered Clouds
6:56 PM 79.0 °F - 69.1 °F 72% 29.81 in 10.0 mi SE 6.9 mph - N/A   Clear
7:56 PM 75.9 °F - 69.1 °F 79% 29.80 in 10.0 mi SE 6.9 mph - N/A   Scattered Clouds
8:56 PM 73.9 °F - 69.1 °F 85% 29.81 in 10.0 mi SSE 5.8 mph - N/A Thunderstorm Mostly Cloudy
9:04 PM 75.0 °F - 68.0 °F 79% 29.83 in 8.0 mi SW 12.7 mph 18.4 mph N/A Thunderstorm Thunderstorm
9:24 PM 72.0 °F - 64.0 °F 76% 29.83 in 10.0 mi SSW 6.9 mph - 0.03 in Thunderstorm Scattered Clouds
9:53 PM 69.8 °F - 62.6 °F 78% 29.84 in 10.0 mi South 5.8 mph - 0.03 in   Clear
9:56 PM 68.0 °F - 63.0 °F 84% 29.83 in 10.0 mi SSE 5.8 mph - 0.03 in   Clear
10:56 PM 68.0 °F - 63.0 °F 84% 29.83 in 10.0 mi South 5.8 mph - N/A   Mostly Cloudy
11:56 PM 66.9 °F - 63.0 °F 87% 29.81 in 10.0 mi NE 4.6 mph - N/A   Clear